{"data":{"norad_id":56785,"intl_designator":"2023-078U","name":"STARLINK-5931","alt_names":[],"object_type":"PAYLOAD","status":"ACTIVE","operator":null,"country":"US","launch_date":"2023-05-31","launch_site_code":"AFWTR","launch_vehicle":null,"mission":null,"orbit_class":"UNKNOWN","rcs_meters":null,"size_class":null,"mass_kg":null,"dimensions":null,"purposes":["comms"],"wikipedia_slug":null,"has_3d_model":false,"image_url":null,"decayed_at":null,"tle_current":{"epoch":"2026-05-25T02:33:41.222304Z","epoch_age_seconds":76193,"freshness":"FRESH","line1":"1 56785U 23078U   26145.10672711 -.00000033  00000+0  50679-5 0  9992","line2":"2 56785  69.9985 151.9071 0003919 266.3306  93.7404 14.98330755164813","mean_motion":14.98330755,"eccentricity":0.0003919,"inclination_deg":69.9985,"raan_deg":151.9071,"arg_perigee_deg":266.3306,"mean_anomaly_deg":93.7404,"bstar":5.0679e-6,"rev_number":16481,"period_min":96.106950697945,"perigee_km":569.32977649121,"apogee_km":574.77733584914,"semimajor_km":6950.1905561702,"source":"CELESTRAK","updated_at":"2026-05-25T13:38:18.155243Z"}}}